This is the latest recevied weather packets stored in our database for station/object K5OLV. If no packets are shown the sender has not sent any weather packets the latest 10 day(s).
| Time | Temp. | Humidity | Pressure | Rain* | Wind** | Luminosity | Snow |
|---|---|---|---|---|---|---|---|
| 1788475716 | 29.44° C | 79% | 1014.5 hPa | 0 mm | - | 70 W/m² | - |
| 1788475412 | 29.44° C | 76% | 1014.5 hPa | 0 mm | - | 70 W/m² | - |
| 1788475108 | 30° C | 76% | 1014.7 hPa | 0 mm | - | 101 W/m² | - |
| 1788474806 | 29.44° C | 74% | 1014.7 hPa | 0 mm | - | 104 W/m² | - |
| 1788474501 | 30° C | 73% | 1014.4 hPa | 0 mm | - | 115 W/m² | - |
| 1788474200 | 29.44° C | 74% | 1014.6 hPa | 0 mm | - | 139 W/m² | - |
| 1788473895 | 30° C | 74% | 1014.6 hPa | 0 mm | - | 111 W/m² | - |
| 1788473594 | 30° C | 74% | 1014.6 hPa | 0 mm | - | 127 W/m² | - |
| 1788473292 | 29.44° C | 73% | 1014.4 hPa | 0 mm | - | 163 W/m² | - |
| 1788472987 | 29.44° C | 73% | 1014.3 hPa | 0 mm | - | 126 W/m² | - |
| 1788472685 | 29.44° C | 72% | 1014.6 hPa | 0 mm | - | 141 W/m² | - |
| 1788472382 | 29.44° C | 73% | 1014.5 hPa | 0 mm | - | 132 W/m² | - |
| 1788472079 | 29.44° C | 72% | 1014.7 hPa | 0 mm | - | 136 W/m² | - |
| 1788471770 | 29.44° C | 72% | 1014.5 hPa | 0 mm | - | 121 W/m² | - |
| 1788471464 | 29.44° C | 72% | 1014.5 hPa | 0 mm | - | 121 W/m² | - |
| 1788471160 | 29.44° C | 70% | 1014.5 hPa | 0 mm | - | 112 W/m² | - |
| 1788470856 | 30° C | 70% | 1014.4 hPa | 0 mm | - | 115 W/m² | - |
| 1788470552 | 30° C | 70% | 1014.5 hPa | 0 mm | - | 102 W/m² | - |
| 1788470245 | 30° C | 69% | 1014.6 hPa | 0 mm | - | 106 W/m² | - |
| 1788469942 | 31.11° C | 67% | 1014.6 hPa | 0 mm | - | 129 W/m² | - |
| 1788469638 | 32.22° C | 61% | 1014.8 hPa | 0 mm | - | 144 W/m² | - |
| 1788469333 | 32.78° C | 60% | 1014.8 hPa | 0 mm | - | 226 W/m² | - |
| 1788469033 | 33.89° C | 54% | 1014.5 hPa | 0 mm | - | 147 W/m² | - |
| 1788468732 | 35° C | 52% | 1014.8 hPa | 0 mm | - | 374 W/m² | - |
| 1788468428 | 35° C | 52% | 1014.8 hPa | 0 mm | - | 553 W/m² | - |
* Rain latest hour (hover to see other rain measurements)
** Current wind speed in m/s (hover to see current wind gust speed)